CW4114 Weather Reports


Display with metric or nautical units.
time (UTC)temp
F
wind
direction
speed
MPH
gust
MPH
rain 1hr
in
rain 24hr
in
rain mn
in
humidity
%
barometer
mb
20210623235741 73 157 10.0 20.0 0.00 0.04 0.00 62 1012.6
20210623235239 74 259 11.0 19.0 0.00 0.04 0.00 61 1012.5
20210623234739 74 236 11.0 20.0 0.00 0.04 0.00 61 1012.6
20210623234240 74 272 11.0 20.0 0.00 0.04 0.00 60 1012.5
20210623233738 75 238 7.0 19.0 0.00 0.04 0.00 59 1012.5
20210623233241 75 257 10.0 21.0 0.00 0.04 0.00 59 1012.5
20210623232739 76 245 10.0 21.0 0.00 0.04 0.00 57 1012.4
20210623232237 76 254 12.0 21.0 0.00 0.04 0.00 57 1012.4
20210623231737 76 283 9.0 21.0 0.00 0.04 0.00 57 1012.3
20210623231236 76 241 6.0 18.0 0.00 0.04 0.00 56 1012.4
20210623230735 77 188 9.0 18.0 0.00 0.04 0.00 56 1012.3
20210623230235 77 221 8.0 19.0 0.00 0.04 0.00 56 1012.3
20210623225735 76 207 9.0 19.0 0.00 0.04 0.00 56 1012.3
20210623225235 76 212 7.0 15.0 0.00 0.04 0.00 55 1012.2
20210623224736 77 223 8.0 15.0 0.00 0.04 0.00 55 1012.2
20210623224233 77 268 6.0 13.0 0.00 0.04 0.00 54 1012.2
20210623223732 77 204 6.0 21.0 0.00 0.04 0.00 53 1012.0
20210623223232 78 247 7.0 21.0 0.00 0.04 0.00 52 1012.1
20210623222731 78 231 7.0 18.0 0.00 0.04 0.00 50 1012.2
20210623222230 79 197 9.0 18.0 0.00 0.04 0.00 50 1012.1
20210623221733 79 241 11.0 18.0 0.00 0.04 0.00 49 1012.1
20210623221230 79 189 8.0 17.0 0.00 0.04 0.00 49 1012.0
20210623220730 79 234 6.0 15.0 0.00 0.04 0.00 48 1012.1
20210623220230 80 247 5.0 15.0 0.00 0.04 0.00 48 1012.0
20210623215731 79 223 6.0 12.0 0.00 0.04 0.00 48 1012.0
20210623215231 79 135 6.0 14.0 0.00 0.04 0.00 50 1011.9
20210623214731 78 212 5.0 14.0 0.00 0.04 0.00 48 1012.0
20210623214230 79 274 7.0 16.0 0.00 0.04 0.00 46 1012.0
20210623213730 79 152 6.0 16.0 0.00 0.04 0.00 46 1012.0
20210623213229 80 203 7.0 15.0 0.00 0.04 0.00 47 1012.1
20210623212730 79 172 6.0 15.0 0.00 0.04 0.00 47 1012.0
20210623212230 80 210 5.0 15.0 0.00 0.04 0.00 46 1012.0
20210623211729 80 216 7.0 14.0 0.00 0.04 0.00 46 1012.1
20210623211230 79 224 6.0 14.0 0.00 0.04 0.00 48 1012.2
20210623210730 78 267 5.0 14.0 0.00 0.04 0.00 48 1012.3
20210623210230 77 250 5.0 13.0 0.00 0.04 0.00 48 1012.4
20210623205729 77 173 5.0 13.0 0.00 0.04 0.00 47 1012.4
20210623205228 77 259 6.0 11.0 0.00 0.04 0.00 47 1012.5
20210623204728 77 240 4.0 12.0 0.00 0.04 0.00 46 1012.6
20210623204231 77 200 4.0 13.0 0.00 0.04 0.00 46 1012.6
20210623203728 78 204 6.0 13.0 0.00 0.04 0.00 45 1012.7
20210623203227 78 227 5.0 14.0 0.00 0.04 0.00 44 1012.8
20210623202727 79 227 6.0 14.0 0.00 0.04 0.00 43 1012.7
20210623202229 80 264 6.0 14.0 0.00 0.04 0.00 44 1012.7
20210623201728 80 237 7.0 14.0 0.00 0.04 0.00 43 1012.7
20210623201227 79 230 6.0 20.0 0.00 0.04 0.00 44 1012.8
20210623200726 78 237 6.0 20.0 0.00 0.04 0.00 45 1012.8
20210623200228 78 207 5.0 11.0 0.00 0.04 0.00 45 1012.8
20210623195727 77 169 3.0 15.0 0.00 0.04 0.00 44 1013.0
20210623195226 78 157 7.0 15.0 0.00 0.04 0.00 43 1012.9
20210623194727 78 259 5.0 16.0 0.00 0.04 0.00 42 1013.0
20210623194226 78 227 9.0 16.0 0.00 0.04 0.00 43 1013.1
20210623193726 78 113 6.0 13.0 0.00 0.04 0.00 44 1013.1
20210623193228 78 247 8.0 13.0 0.00 0.04 0.00 43 1013.1
20210623192726 79 212 4.0 18.0 0.00 0.04 0.00 45 1013.2
20210623192227 78 234 9.0 18.0 0.00 0.04 0.00 44 1013.2
20210623191725 78 182 6.0 15.0 0.00 0.04 0.00 43 1013.3
20210623191226 78 250 6.0 15.0 0.00 0.04 0.00 45 1013.3
20210623190724 78 200 7.0 15.0 0.00 0.05 0.00 42 1013.3
20210623190224 78 226 5.0 14.0 0.00 0.05 0.00 42 1013.4
20210623185724 77 240 5.0 17.0 0.00 0.05 0.00 45 1013.4
20210623185225 77 165 8.0 17.0 0.00 0.05 0.00 44 1013.4
20210623184725 77 272 7.0 17.0 0.00 0.05 0.00 43 1013.5
20210623184225 77 227 3.0 17.0 0.00 0.05 0.00 44 1013.6
20210623183724 78 237 7.0 14.0 0.00 0.05 0.00 42 1013.6
20210623183225 78 251 5.0 17.0 0.00 0.05 0.00 42 1013.6
20210623182724 78 233 4.0 17.0 0.00 0.05 0.00 41 1013.7
20210623182224 78 306 8.0 17.0 0.00 0.05 0.00 40 1013.8
20210623181725 78 237 6.0 17.0 0.00 0.05 0.00 41 1013.8
20210623181224 78 203 5.0 15.0 0.00 0.05 0.00 43 1013.8
20210623180723 77 202 6.0 14.0 0.00 0.05 0.00 42 1013.8
20210623180224 77 206 4.0 12.0 0.00 0.05 0.00 42 1013.9
20210623175724 76 197 4.0 11.0 0.00 0.05 0.00 40 1014.0
20210623175222 76 172 6.0 11.0 0.00 0.05 0.00 40 1014.1
20210623174723 76 226 6.0 12.0 0.00 0.05 0.00 41 1014.1
20210623174215 76 244 5.0 12.0 0.00 0.05 0.00 43 1014.3
20210623173715 76 243 7.0 13.0 0.00 0.05 0.00 41 1014.3
20210623173213 76 268 7.0 13.0 0.00 0.05 0.00 41 1014.4
20210623172709 75 264 5.0 15.0 0.00 0.05 0.00 44 1014.3
20210623172209 75 176 4.0 15.0 0.00 0.05 0.00 40 1014.4
20210623171710 76 230 7.0 15.0 0.00 0.05 0.00 43 1014.4
20210623171210 75 202 6.0 15.0 0.00 0.05 0.00 43 1014.5
20210623170710 75 212 7.0 19.0 0.00 0.05 0.00 42 1014.6
20210623170209 75 206 5.0 19.0 0.00 0.05 0.00 43 1014.6
20210623165709 75 217 8.0 13.0 0.00 0.05 0.00 44 1014.7
20210623165203 74 213 6.0 18.0 0.00 0.05 0.00 45 1014.7
20210623164704 74 259 8.0 18.0 0.00 0.05 0.00 43 1014.7
20210623164204 74 188 6.0 16.0 0.00 0.05 0.00 45 1014.8
20210623163703 73 185 7.0 14.0 0.00 0.05 0.00 44 1014.8
20210623163204 73 152 5.0 13.0 0.00 0.05 0.00 43 1014.8
20210623162704 73 261 7.0 13.0 0.00 0.05 0.00 44 1014.9
20210623162204 73 241 6.0 14.0 0.00 0.05 0.00 45 1014.9
20210623161704 73 226 7.0 17.0 0.00 0.05 0.00 46 1015.1
20210623161204 72 197 8.0 17.0 0.00 0.05 0.00 43 1015.1
20210623160704 72 166 7.0 15.0 0.00 0.05 0.00 45 1015.2
20210623160204 72 255 7.0 15.0 0.00 0.05 0.00 44 1015.2
20210623155704 72 188 6.0 14.0 0.00 0.05 0.00 43 1015.2
20210623155203 72 272 6.0 13.0 0.00 0.05 0.00 47 1015.3
20210623154704 72 209 5.0 13.0 0.00 0.05 0.00 47 1015.3
20210623154203 72 220 6.0 13.0 0.00 0.05 0.00 47 1015.4
20210623153705 72 207 7.0 14.0 0.00 0.05 0.00 46 1015.4
20210623153204 71 200 4.0 14.0 0.00 0.05 0.00 46 1015.4
20210623152705 72 197 4.0 17.0 0.00 0.05 0.00 46 1015.4
20210623152203 71 272 8.0 17.0 0.00 0.05 0.00 46 1015.5
20210623151702 70 224 6.0 15.0 0.00 0.05 0.00 45 1015.5
20210623151204 70 207 6.0 13.0 0.00 0.05 0.00 44 1015.5
20210623150703 71 271 6.0 16.0 0.00 0.05 0.00 47 1015.6
20210623150202 70 216 9.0 16.0 0.00 0.05 0.00 48 1015.7
20210623145703 70 238 4.0 14.0 0.00 0.05 0.00 48 1015.8
20210623145202 70 206 7.0 15.0 0.00 0.05 0.00 50 1015.8
20210623144701 69 233 6.0 15.0 0.00 0.05 0.00 50 1015.9
20210623144202 69 250 6.0 14.0 0.00 0.05 0.00 51 1015.9
20210623143703 69 212 7.0 14.0 0.00 0.05 0.00 53 1015.9
20210623143202 69 255 6.0 12.0 0.00 0.05 0.00 53 1015.8
20210623142702 69 259 6.0 17.0 0.00 0.05 0.00 54 1015.8
20210623142202 69 245 10.0 17.0 0.00 0.05 0.00 55 1015.9
20210623141702 68 200 4.0 12.0 0.00 0.05 0.00 55 1015.9
20210623141204 67 216 4.0 13.0 0.00 0.05 0.00 58 1015.9
20210623140703 67 259 7.0 15.0 0.00 0.05 0.00 56 1016.0
20210623140202 66 221 7.0 15.0 0.00 0.05 0.00 58 1016.0
20210623135701 66 262 7.0 14.0 0.00 0.05 0.00 60 1015.8
20210623135203 65 247 6.0 14.0 0.00 0.05 0.00 62 1016.0
20210623134701 65 228 6.0 14.0 0.00 0.05 0.00 61 1016.0
20210623134159 64 183 6.0 14.0 0.00 0.05 0.00 63 1016.0
20210623133700 65 245 6.0 13.0 0.00 0.05 0.00 65 1016.1
20210623133159 64 262 5.0 13.0 0.00 0.05 0.00 66 1016.0
20210623132658 63 247 5.0 13.0 0.00 0.05 0.00 67 1016.0
20210623132154 62 195 5.0 10.0 0.00 0.05 0.00 67 1016.0
20210623131655 62 269 6.0 10.0 0.00 0.05 0.00 68 1016.0
20210623131152 62 245 5.0 10.0 0.00 0.05 0.00 68 1016.0
20210623130654 62 255 5.0 7.0 0.00 0.05 0.00 70 1016.0
20210623130150 61 219 4.0 12.0 0.00 0.05 0.00 71 1016.0
20210623125653 60 254 6.0 12.0 0.00 0.05 0.00 71 1015.9
20210623125149 60 267 6.0 12.0 0.00 0.05 0.00 72 1015.9
20210623124648 60 272 4.0 10.0 0.00 0.05 0.00 74 1015.8
20210623124151 59 247 4.0 10.0 0.00 0.05 0.00 73 1015.8
20210623123648 59 265 5.0 9.0 0.00 0.05 0.00 74 1015.7
20210623123148 58 252 4.0 9.0 0.00 0.05 0.00 75 1015.8
20210623122647 58 254 4.0 7.0 0.00 0.05 0.00 76 1015.8
20210623122148 57 241 3.0 7.0 0.00 0.05 0.00 77 1015.7
20210623121648 57 209 4.0 10.0 0.00 0.05 0.00 77 1015.7
20210623121146 56 168 4.0 10.0 0.00 0.05 0.00 78 1015.6
20210623120650 56 240 4.0 10.0 0.00 0.05 0.00 78 1015.6
20210623120150 55 202 4.0 10.0 0.00 0.05 0.00 79 1015.6
20210623115647 55 210 4.0 10.0 0.00 0.05 0.00 79 1015.5
20210623115147 54 245 5.0 10.0 0.00 0.05 0.00 80 1015.5
20210623114643 54 216 4.0 9.0 0.00 0.05 0.00 81 1015.4
20210623114145 53 248 4.0 9.0 0.00 0.05 0.00 82 1015.4
20210623113643 53 250 4.0 10.0 0.00 0.05 0.00 83 1015.4
20210623113144 52 179 3.0 10.0 0.00 0.05 0.00 84 1015.4
20210623112644 51 243 3.0 10.0 0.00 0.05 0.00 85 1015.4
20210623112143 51 252 3.0 7.0 0.00 0.05 0.00 85 1015.3
20210623111637 51 255 3.0 7.0 0.00 0.05 0.00 86 1015.3
20210623111137 51 241 3.0 7.0 0.00 0.05 0.00 87 1015.3
20210623110637 50 210 3.0 6.0 0.00 0.05 0.00 89 1015.3
20210623110135 49 241 1.0 5.0 0.00 0.05 0.00 91 1015.3
20210623105635 49 252 2.0 5.0 0.00 0.05 0.00 91 1015.1
20210623105133 48 200 2.0 4.0 0.00 0.05 0.00 92 1015.1
20210623104633 48 204 2.0 6.0 0.00 0.05 0.00 92 1015.1
20210623104134 47 224 3.0 6.0 0.00 0.05 0.00 92 1014.9
20210623103633 47 224 2.0 6.0 0.00 0.05 0.00 93 1015.1
20210623103133 47 221 2.0 5.0 0.00 0.05 0.00 93 1015.1
20210623102634 46 233 3.0 5.0 0.00 0.05 0.00 93 1015.2
20210623102132 46 196 3.0 5.0 0.00 0.05 0.00 93 1015.1
20210623101629 46 261 2.0 4.0 0.00 0.05 0.00 93 1015.1
20210623101129 46 237 2.0 4.0 0.00 0.05 0.00 93 1014.9
20210623100627 46 219 2.0 4.0 0.00 0.05 0.00 93 1014.8
20210623100127 46 204 2.0 5.0 0.00 0.05 0.00 92 1014.7
20210623095626 46 213 2.0 5.0 0.00 0.05 0.00 92 1014.6
20210623095125 46 206 2.0 5.0 0.00 0.05 0.00 92 1014.7
20210623094626 46 240 2.0 5.0 0.00 0.05 0.00 92 1014.8
20210623094126 46 254 3.0 5.0 0.00 0.05 0.00 92 1014.8
20210623093625 46 247 2.0 4.0 0.00 0.05 0.00 92 1014.8
20210623093125 46 226 2.0 4.0 0.00 0.05 0.00 92 1014.7
20210623092625 47 231 2.0 4.0 0.00 0.05 0.00 92 1014.8
20210623092125 47 206 2.0 4.0 0.00 0.05 0.00 92 1014.7
20210623091627 47 219 2.0 4.0 0.00 0.05 0.00 92 1014.7
20210623091127 47 226 3.0 6.0 0.00 0.05 0.00 92 1014.7
20210623090625 46 240 2.0 6.0 0.00 0.05 0.00 93 1014.7
20210623090125 46 233 3.0 6.0 0.00 0.05 0.00 93 1014.7
20210623085625 46 240 3.0 6.0 0.00 0.05 0.00 93 1014.6
20210623085121 46 265 3.0 7.0 0.00 0.05 0.00 93 1014.5
20210623084621 46 231 3.0 7.0 0.00 0.05 0.00 93 1014.5
20210623084121 46 255 4.0 6.0 0.00 0.05 0.00 93 1014.5
20210623083619 46 251 3.0 6.0 0.00 0.05 0.00 92 1014.5
20210623083118 46 269 3.0 4.0 0.00 0.05 0.00 92 1014.5
20210623082617 46 252 3.0 4.0 0.00 0.05 0.00 92 1014.5
20210623082117 46 250 2.0 6.0 0.00 0.05 0.00 92 1014.5
20210623081616 46 252 3.0 6.0 0.00 0.05 0.00 92 1014.6
20210623081118 46 251 3.0 6.0 0.00 0.05 0.00 92 1014.6
20210623080612 46 251 3.0 6.0 0.00 0.05 0.00 92 1014.7
20210623080113 47 262 4.0 6.0 0.00 0.05 0.00 92 1014.6
20210623075613 47 261 4.0 6.0 0.00 0.05 0.00 92 1014.7
20210623075111 47 241 3.0 6.0 0.00 0.05 0.00 92 1014.5
20210623074610 47 258 4.0 6.0 0.00 0.05 0.00 92 1014.6
20210623074108 47 261 4.0 6.0 0.00 0.05 0.00 92 1014.6
20210623073606 47 255 3.0 6.0 0.00 0.05 0.00 92 1014.6
20210623073108 47 274 4.0 6.0 0.00 0.05 0.00 92 1014.6
20210623072609 47 255 4.0 6.0 0.00 0.05 0.00 92 1014.6
20210623072105 47 234 4.0 6.0 0.00 0.05 0.00 92 1014.5
20210623071604 47 262 4.0 6.0 0.00 0.05 0.00 92 1014.5
20210623071105 47 259 4.0 7.0 0.00 0.05 0.00 92 1014.5
20210623070604 47 254 5.0 7.0 0.00 0.05 0.00 92 1014.5
20210623070104 47 240 4.0 7.0 0.00 0.05 0.00 92 1014.5
20210623065605 47 257 4.0 7.0 0.00 0.05 0.00 92 1014.5
20210623065104 47 262 4.0 9.0 0.00 0.05 0.00 93 1014.4
20210623064604 47 243 4.0 9.0 0.00 0.05 0.00 93 1014.4
20210623064107 47 269 5.0 7.0 0.00 0.05 0.00 93 1014.4
20210623063600 47 258 4.0 7.0 0.00 0.05 0.00 93 1014.4
20210623063100 47 237 5.0 7.0 0.00 0.05 0.00 93 1014.3
20210623062601 47 254 4.0 7.0 0.00 0.05 0.00 93 1014.2
20210623062058 48 245 4.0 7.0 0.00 0.05 0.00 93 1014.3
20210623061556 48 264 4.0 7.0 0.00 0.05 0.00 93 1014.2
20210623061056 48 236 3.0 5.0 0.00 0.05 0.00 93 1014.1
20210623060553 48 247 3.0 5.0 0.00 0.05 0.00 93 1014.2
20210623060053 48 248 3.0 6.0 0.00 0.05 0.00 93 1014.1
20210623055553 48 268 3.0 6.0 0.00 0.05 0.00 93 1014.2
20210623055055 48 252 3.0 5.0 0.00 0.05 0.00 93 1014.1
20210623054552 48 234 3.0 6.0 0.00 0.05 0.00 93 1014.1
20210623054053 48 248 3.0 7.0 0.00 0.05 0.00 93 1014.1
20210623053553 48 251 3.0 7.0 0.00 0.05 0.00 93 1014.1
20210623053053 48 245 3.0 6.0 0.00 0.05 0.00 94 1014.1
20210623052553 48 240 3.0 5.0 0.00 0.05 0.00 94 1014.1
20210623052047 48 243 4.0 5.0 0.00 0.05 0.00 93 1014.0
20210623051545 49 258 3.0 5.0 0.00 0.05 0.00 93 1014.0
20210623051046 49 262 3.0 5.0 0.00 0.05 0.00 93 1014.0
20210623050545 49 257 3.0 6.0 0.00 0.05 0.00 93 1013.9
20210623050047 49 264 4.0 6.0 0.00 0.05 0.00 93 1013.9
20210623045540 49 251 4.0 6.0 0.00 0.05 0.00 93 1013.9
20210623045039 49 262 5.0 7.0 0.00 0.05 0.00 93 1013.9
20210623044534 49 265 4.0 7.0 0.00 0.05 0.00 94 1013.9
20210623044034 49 278 4.0 6.0 0.00 0.05 0.00 94 1013.8
20210623043533 49 258 4.0 6.0 0.00 0.05 0.00 94 1013.9
20210623043036 49 258 4.0 6.0 0.00 0.05 0.00 94 1013.8
20210623042535 49 265 3.0 5.0 0.00 0.05 0.00 94 1013.8
20210623042033 49 247 3.0 4.0 0.00 0.05 0.00 94 1013.7
20210623041535 49 240 2.0 4.0 0.00 0.05 0.00 94 1013.8
20210623041039 49 238 2.0 6.0 0.00 0.05 0.00 93 1013.7
20210623040535 49 259 3.0 6.0 0.00 0.05 0.00 93 1013.7
20210623040033 49 241 3.0 5.0 0.00 0.05 0.00 94 1013.8
20210623035533 50 248 3.0 5.0 0.00 0.05 0.05 94 1013.7
20210623035034 50 259 3.0 5.0 0.00 0.05 0.05 94 1013.7
20210623034532 50 250 3.0 5.0 0.00 0.05 0.05 94 1013.7
20210623034034 50 240 3.0 5.0 0.00 0.05 0.05 94 1013.6
20210623033534 50 243 2.0 5.0 0.00 0.05 0.05 93 1013.6
20210623033032 50 250 3.0 5.0 0.00 0.05 0.05 93 1013.7
20210623032530 50 252 2.0 5.0 0.00 0.05 0.05 93 1013.7
20210623032030 50 265 3.0 5.0 0.00 0.05 0.05 93 1013.8
20210623031530 50 237 2.0 5.0 0.00 0.05 0.05 93 1013.7
20210623031031 50 267 3.0 6.0 0.00 0.05 0.05 93 1013.7
20210623030532 50 255 3.0 6.0 0.00 0.05 0.05 93 1013.6
20210623030030 50 283 3.0 6.0 0.00 0.05 0.05 93 1013.7
20210623025530 50 262 3.0 5.0 0.00 0.05 0.05 93 1013.6
20210623025031 51 264 2.0 4.0 0.00 0.05 0.05 93 1013.5
20210623024526 51 258 3.0 5.0 0.00 0.05 0.05 93 1013.4
20210623024026 51 245 3.0 5.0 0.00 0.05 0.05 93 1013.5
20210623023529 51 251 2.0 5.0 0.00 0.05 0.05 93 1013.3
20210623023024 51 252 3.0 5.0 0.00 0.05 0.05 93 1013.3
20210623022525 52 268 3.0 4.0 0.00 0.05 0.05 92 1013.4
20210623022025 52 234 2.0 4.0 0.00 0.05 0.05 92 1013.3
20210623021524 52 267 3.0 4.0 0.00 0.05 0.05 92 1013.3
20210623021020 52 255 2.0 3.0 0.00 0.05 0.05 92 1013.2
20210623020520 53 248 2.0 3.0 0.00 0.05 0.05 91 1013.2
20210623020018 53 219 2.0 3.0 0.00 0.05 0.05 91 1013.0
20210623015517 53 231 1.0 4.0 0.00 0.05 0.05 91 1012.9
20210623015019 53 231 2.0 4.0 0.00 0.05 0.05 91 1012.9
20210623014515 54 226 1.0 4.0 0.00 0.05 0.05 92 1012.9
20210623014012 54 226 0.0 2.0 0.00 0.05 0.05 92 1012.9
20210623013512 54 228 1.0 3.0 0.00 0.05 0.05 92 1012.8
20210623013010 54 240 1.0 2.0 0.00 0.05 0.05 92 1012.8
20210623012510 54 213 1.0 2.0 0.01 0.05 0.05 92 1012.7
20210623012010 54 219 0.0 2.0 0.01 0.05 0.05 92 1012.7
20210623011511 54 217 0.0 1.0 0.04 0.05 0.05 92 1012.7
20210623011008 55 214 0.0 1.0 0.04 0.05 0.05 91 1012.7
20210623010509 55 214 0.0 3.0 0.04 0.05 0.05 91 1012.7
20210623010011 55 213 0.0 3.0 0.04 0.05 0.05 90 1012.6
20210623005504 55 220 0.0 3.0 0.04 0.05 0.05 89 1012.6
20210623005003 55 231 1.0 3.0 0.04 0.05 0.05 89 1012.6
20210623004504 55 255 2.0 4.0 0.04 0.05 0.05 89 1012.7
20210623004004 55 286 1.0 4.0 0.04 0.05 0.05 87 1012.7
20210623003503 56 300 1.0 5.0 0.04 0.05 0.05 86 1012.6
20210623003005 56 196 3.0 6.0 0.04 0.05 0.05 85 1012.4
20210623002505 56 193 2.0 7.0 0.03 0.04 0.04 83 1012.5
20210623002006 57 207 2.0 7.0 0.03 0.04 0.04 81 1012.5
20210623001504 57 200 2.0 6.0 0.00 0.01 0.01 79 1012.4
20210623001004 57 203 2.0 6.0 0.00 0.01 0.01 78 1012.2
20210623000505 57 183 4.0 5.0 0.00 0.01 0.01 78 1012.2